Zurück zum Katalog

IRIDIUM 100

AktivKommunikationPO
NORAD 42956·PAYLOAD·🇺🇸 United States

Gestartet Oct 9, 2017 von Vandenberg Space Force Base

Loading…

Nächste Überflüge (nächste 24 Stunden)

TLE

AktuellSource: CelesTrak SupGP

Epoche: Sep 14, 2026, 08:09 UTC

1 42956C 17061B   26257.33993056 -.00004911  00000+0 -17558-2 0  2572
2 42956  86.4028 347.9320 0002156  96.9631 319.9881 14.34223353    12

Verfolge IRIDIUM 100 in Echtzeit mit AllMySat

Download on the App Store